Weather History for Monticello, KY

Change the Weather History Date:

Thursday, January 10, 2013

  Actual Average Record
Temperature  
Mean Temperature 56 °F -  
Max Temperature 64 °F 43 °F 67 °F (1957)
Min Temperature 48 °F 22 °F -11 °F (1970)
Degree Days  
Heating Degree Days 9    
Growing Degree Days 6 (Base 50)    
Moisture  
Dew Point 52 °F    
Average Humidity 88    
Maximum Humidity 100    
Minimum Humidity 70    
Precipitation  
Precipitation 0.00 in - - ()
Sea Level Pressure  
Sea Level Pressure 30.36 in    
Wind  
Wind Speed 5 mph (ENE)    
Max Wind Speed 14 mph    
Max Gust Speed -    
Visibility 9 miles    
Events Rain    
Averages and records for this station are not official NWS values.
T = Trace of Precipitation, MM = Missing Value Source: NWS Daily Summary

Daily Weather History Graph

Daily Weather History Graph

Search for Another Location

Airport:

Trip Planner

Search our weather history database for the weather conditions in past years. The results will help you decide how hot, cold, wet, or windy it might be!

Date:

Astronomy

Jan. 10, 2013 Rise Set
Actual Time 6:52 AM CST 4:42 PM CST
Civil Twilight 6:23 AM CST 5:10 PM CST
Nautical Twilight 5:51 AM CST 5:42 PM CST
Astronomical Twilight 5:20 AM CST 6:13 PM CST
Moon 5:31 AM CST 3:48 PM CST
Length of Visible Light 10h 46m
Length of Day
9h 49m
Waning Crescent, 2% of the Moon is Illuminated
Jan 10
Waning Crescent
Jan 11
New
Jan 18
First Quarter
Jan 26
Full
Feb 3
Last Quarter

Hourly Weather History & Observations

Time (CST) Temp. Dew Point Humidity Pressure Visibility Wind Dir Wind Speed Gust Speed Precip Events Conditions
12:28 AM 51.8 °F 51.8 °F 100% 30.47 in 4.0 mi NNE 5.8 mph - N/A   Overcast
12:56 AM 50.9 °F 50.9 °F 100% 30.47 in 6.0 mi NE 3.5 mph - N/A   Mostly Cloudy
1:56 AM 50.0 °F 48.9 °F 96% 30.49 in 10.0 mi NE 4.6 mph - N/A   Scattered Clouds
2:56 AM 48.9 °F 46.9 °F 93% 30.50 in 10.0 mi NE 5.8 mph - N/A   Mostly Cloudy
3:56 AM 48.9 °F 47.8 °F 96% 30.47 in 10.0 mi NE 6.9 mph - N/A   Mostly Cloudy
4:56 AM 48.9 °F 48.9 °F 100% 30.45 in 9.0 mi NE 3.5 mph - 0.00 in Rain Light Rain
5:56 AM 48.9 °F 48.9 °F 100% 30.44 in 10.0 mi Calm Calm - 0.00 in   Mostly Cloudy
6:56 AM 48.9 °F 48.9 °F 100% 30.45 in 10.0 mi Calm Calm - 0.00 in   Mostly Cloudy
7:56 AM 48.9 °F 48.9 °F 100% 30.44 in 8.0 mi NNE 5.8 mph - 0.00 in   Mostly Cloudy
8:56 AM 52.9 °F 50.9 °F 93% 30.44 in 10.0 mi East 8.1 mph - N/A   Mostly Cloudy
9:56 AM 54.9 °F 52.0 °F 90% 30.43 in 10.0 mi East 5.8 mph - N/A   Mostly Cloudy
10:56 AM 54.9 °F 52.9 °F 93% 30.39 in 10.0 mi East 6.9 mph - 0.00 in   Mostly Cloudy
11:56 AM 57.9 °F 54.9 °F 90% 30.35 in 10.0 mi Calm Calm - 0.00 in   Partly Cloudy
12:56 PM 59.9 °F 54.9 °F 83% 30.32 in 10.0 mi Calm Calm - N/A   Mostly Cloudy
1:56 PM 61.9 °F 55.9 °F 81% 30.31 in 10.0 mi Calm Calm - N/A   Partly Cloudy
2:56 PM 61.9 °F 56.8 °F 84% 30.30 in 10.0 mi Calm Calm - N/A   Clear
3:56 PM 59.0 °F 55.9 °F 90% 30.29 in 10.0 mi Calm Calm - N/A   Clear
4:56 PM 63.0 °F 55.9 °F 78% 30.27 in 10.0 mi SE 5.8 mph - N/A   Overcast
5:56 PM 64.9 °F 54.9 °F 70% 30.25 in 10.0 mi SE 6.9 mph - N/A   Overcast
6:56 PM 63.0 °F 54.9 °F 75% 30.22 in 10.0 mi Variable 5.8 mph - N/A   Mostly Cloudy
7:56 PM 63.0 °F 54.0 °F 72% 30.21 in 10.0 mi Variable 5.8 mph - N/A   Mostly Cloudy
8:56 PM 61.9 °F 52.9 °F 72% 30.16 in 10.0 mi Variable 6.9 mph - N/A   Clear
9:56 PM 61.9 °F 52.9 °F 72% 30.14 in 10.0 mi SSE 13.8 mph - N/A   Clear